Stündliche Wetter Barra do Garças

Heute, 22 Oktober, Donnerstag

Zeit Temperatur Niederschläge Wind Luftdruck Luftfeuchtigkeit
00:00 +25°C° 0.3 mm 1 m/S 728 mmHg 81%
01:00 +25°C° 0 mm 1 m/S 728 mmHg 82%
02:00 +23°C° 0 mm 0 m/S 727 mmHg 83%
03:00 +22°C° 0 mm 0 m/S 727 mmHg 85%
04:00 +22°C° 0 mm 0 m/S 727 mmHg 85%
05:00 +22°C° 0 mm 0 m/S 727 mmHg 85%
06:00 +24°C° 0 mm 1 m/S 727 mmHg 85%
07:00 +26°C° 0 mm 1 m/S 728 mmHg 75%
08:00 +29°C° 0 mm 1 m/S 729 mmHg 65%
09:00 +32°C° 0 mm 1 m/S 729 mmHg 55%
10:00 +34°C° 0 mm 1 m/S 729 mmHg 48%
11:00 +36°C° 0 mm 1 m/S 729 mmHg 41%
12:00 +39°C° 0 mm 1 m/S 729 mmHg 34%
13:00 +40°C° 0 mm 1 m/S 728 mmHg 32%
14:00 +40°C° 0 mm 1 m/S 727 mmHg 30%
15:00 +41°C° 0 mm 1 m/S 726 mmHg 28%
16:00 +39°C° 0 mm 1 m/S 726 mmHg 32%
17:00 +36°C° 0 mm 1 m/S 726 mmHg 36%
18:00 +35°C° 0 mm 2 m/S 725 mmHg 40%
19:00 +33°C° 0.2 mm 1 m/S 726 mmHg 44%
20:00 +32°C° 0.2 mm 1 m/S 726 mmHg 48%
21:00 +31°C° 0.2 mm 1 m/S 727 mmHg 53%
22:00 +30°C° 0.1 mm 1 m/S 727 mmHg 56%
23:00 +29°C° 0.1 mm 1 m/S 727 mmHg 60%

Morgen, 23 Oktober, Freitag

Zeit Temperatur Niederschläge Wind Luftdruck Luftfeuchtigkeit
00:00 +28°C° 0.1 mm 1 m/S 727 mmHg 63%
01:00 +28°C° 0 mm 1 m/S 726 mmHg 65%
02:00 +27°C° 0 mm 1 m/S 726 mmHg 68%
03:00 +27°C° 0 mm 1 m/S 725 mmHg 70%
04:00 +26°C° 0 mm 1 m/S 726 mmHg 71%
05:00 +26°C° 0 mm 1 m/S 726 mmHg 72%
06:00 +24°C° 0 mm 0 m/S 726 mmHg 74%
07:00 +26°C° 0 mm 0 m/S 727 mmHg 65%
08:00 +29°C° 0 mm 0 m/S 727 mmHg 57%
09:00 +34°C° 0 mm 1 m/S 728 mmHg 49%
10:00 +36°C° 0 mm 1 m/S 728 mmHg 43%
11:00 +39°C° 0 mm 1 m/S 728 mmHg 37%
12:00 +42°C° 0 mm 1 m/S 727 mmHg 31%
13:00 +41°C° 0.1 mm 1 m/S 726 mmHg 33%
14:00 +40°C° 0.1 mm 2 m/S 725 mmHg 34%
15:00 +38°C° 0.1 mm 3 m/S 724 mmHg 36%
16:00 +35°C° 1 mm 3 m/S 724 mmHg 49%
17:00 +31°C° 1 mm 3 m/S 724 mmHg 61%
18:00 +28°C° 1 mm 2 m/S 724 mmHg 74%
19:00 +27°C° 0.3 mm 2 m/S 725 mmHg 77%
20:00 +27°C° 0.3 mm 2 m/S 726 mmHg 80%
21:00 +26°C° 0.3 mm 2 m/S 726 mmHg 83%
22:00 +26°C° 0.4 mm 2 m/S 726 mmHg 85%
23:00 +26°C° 0.4 mm 2 m/S 727 mmHg 87%

übermorgen, 24 Oktober, Samstag

Zeit Temperatur Niederschläge Wind Luftdruck Luftfeuchtigkeit
00:00 +25°C° 0.4 mm 2 m/S 727 mmHg 89%
01:00 +25°C° 0.5 mm 2 m/S 726 mmHg 90%
02:00 +25°C° 0.5 mm 2 m/S 726 mmHg 90%
03:00 +25°C° 0.5 mm 2 m/S 726 mmHg 91%
04:00 +25°C° 0 mm 2 m/S 726 mmHg 92%
05:00 +24°C° 0 mm 2 m/S 726 mmHg 93%
06:00 +24°C° 0 mm 1 m/S 726 mmHg 94%
07:00 +25°C° 0 mm 2 m/S 727 mmHg 90%
08:00 +26°C° 0 mm 2 m/S 728 mmHg 87%
09:00 +26°C° 0 mm 2 m/S 728 mmHg 83%
10:00 +27°C° 0 mm 2 m/S 728 mmHg 78%
11:00 +28°C° 0 mm 2 m/S 728 mmHg 74%
12:00 +29°C° 0 mm 2 m/S 728 mmHg 70%
13:00 +29°C° 1 mm 3 m/S 727 mmHg 69%
14:00 +30°C° 1 mm 3 m/S 726 mmHg 69%
15:00 +30°C° 1 mm 4 m/S 726 mmHg 69%
16:00 +29°C° 0.4 mm 3 m/S 725 mmHg 71%
17:00 +29°C° 0.4 mm 2 m/S 724 mmHg 74%
18:00 +28°C° 0.4 mm 1 m/S 724 mmHg 76%
19:00 +27°C° 0.2 mm 1 m/S 724 mmHg 79%
20:00 +26°C° 0.2 mm 1 m/S 725 mmHg 82%
21:00 +25°C° 0.2 mm 1 m/S 725 mmHg 86%
22:00 +25°C° 0.3 mm 1 m/S 725 mmHg 86%
23:00 +25°C° 0.3 mm 1 m/S 725 mmHg 85%

, 25 Oktober, Sonntag

Zeit Temperatur Niederschläge Wind Luftdruck Luftfeuchtigkeit
00:00 +26°C° 0.3 mm 1 m/S 725 mmHg 85%
01:00 +25°C° 0.4 mm 1 m/S 725 mmHg 87%
02:00 +25°C° 0.4 mm 1 m/S 725 mmHg 89%
03:00 +24°C° 0.4 mm 1 m/S 724 mmHg 90%
04:00 +24°C° 0 mm 1 m/S 725 mmHg 91%
05:00 +24°C° 0 mm 1 m/S 725 mmHg 92%
06:00 +23°C° 0 mm 1 m/S 725 mmHg 93%
07:00 +25°C° 0 mm 1 m/S 726 mmHg 84%
08:00 +28°C° 0 mm 2 m/S 726 mmHg 76%
09:00 +30°C° 0 mm 2 m/S 727 mmHg 67%
10:00 +31°C° 0.1 mm 2 m/S 727 mmHg 60%
11:00 +34°C° 0.1 mm 3 m/S 726 mmHg 53%
12:00 +36°C° 0.1 mm 4 m/S 726 mmHg 45%
13:00 +36°C° 0 mm 4 m/S 725 mmHg 45%
14:00 +36°C° 0 mm 4 m/S 725 mmHg 45%
15:00 +36°C° 0 mm 4 m/S 724 mmHg 44%
16:00 +35°C° 0 mm 3 m/S 724 mmHg 47%
17:00 +34°C° 0 mm 2 m/S 723 mmHg 50%
18:00 +34°C° 0 mm 2 m/S 723 mmHg 53%
19:00 +31°C° 0.7 mm 1 m/S 724 mmHg 61%
20:00 +29°C° 0.7 mm 1 m/S 724 mmHg 69%
21:00 +27°C° 0.7 mm 1 m/S 724 mmHg 77%
22:00 +27°C° 0.3 mm 1 m/S 724 mmHg 79%
23:00 +27°C° 0.3 mm 1 m/S 724 mmHg 80%

25 Oktober, Sonntag

Zeit Temperatur Niederschläge Wind Luftdruck Luftfeuchtigkeit
00:00 +26°C° 0.3 mm 1 m/S 725 mmHg 85%
01:00 +25°C° 0.4 mm 1 m/S 725 mmHg 87%
02:00 +25°C° 0.4 mm 1 m/S 725 mmHg 89%
03:00 +24°C° 0.4 mm 1 m/S 724 mmHg 90%
04:00 +24°C° 0 mm 1 m/S 725 mmHg 91%
05:00 +24°C° 0 mm 1 m/S 725 mmHg 92%
06:00 +23°C° 0 mm 1 m/S 725 mmHg 93%
07:00 +25°C° 0 mm 1 m/S 726 mmHg 84%
08:00 +28°C° 0 mm 2 m/S 726 mmHg 76%
09:00 +30°C° 0 mm 2 m/S 727 mmHg 67%
10:00 +31°C° 0.1 mm 2 m/S 727 mmHg 60%
11:00 +34°C° 0.1 mm 3 m/S 726 mmHg 53%
12:00 +36°C° 0.1 mm 4 m/S 726 mmHg 45%
13:00 +36°C° 0 mm 4 m/S 725 mmHg 45%
14:00 +36°C° 0 mm 4 m/S 725 mmHg 45%
15:00 +36°C° 0 mm 4 m/S 724 mmHg 44%
16:00 +35°C° 0 mm 3 m/S 724 mmHg 47%
17:00 +34°C° 0 mm 2 m/S 723 mmHg 50%
18:00 +34°C° 0 mm 2 m/S 723 mmHg 53%
19:00 +31°C° 0.7 mm 1 m/S 724 mmHg 61%
20:00 +29°C° 0.7 mm 1 m/S 724 mmHg 69%
21:00 +27°C° 0.7 mm 1 m/S 724 mmHg 77%
22:00 +27°C° 0.3 mm 1 m/S 724 mmHg 79%
23:00 +27°C° 0.3 mm 1 m/S 724 mmHg 80%

26 Oktober, Montag

Zeit Temperatur Niederschläge Wind Luftdruck Luftfeuchtigkeit
00:00 +26°C° 0.3 mm 1 m/S 724 mmHg 82%
01:00 +26°C° 0.1 mm 1 m/S 724 mmHg 83%
02:00 +24°C° 0.1 mm 0 m/S 724 mmHg 84%
03:00 +23°C° 0.1 mm 0 m/S 723 mmHg 85%
04:00 +23°C° 0.5 mm 0 m/S 724 mmHg 86%
05:00 +23°C° 0.5 mm 0 m/S 724 mmHg 88%
06:00 +22°C° 0.5 mm 0 m/S 724 mmHg 90%
07:00 +26°C° 0.5 mm 1 m/S 725 mmHg 82%
08:00 +28°C° 0.5 mm 1 m/S 726 mmHg 74%
09:00 +30°C° 0.5 mm 1 m/S 727 mmHg 66%
10:00 +32°C° 0.7 mm 2 m/S 726 mmHg 59%
11:00 +35°C° 0.7 mm 2 m/S 726 mmHg 53%
12:00 +36°C° 0.7 mm 3 m/S 726 mmHg 46%
13:00 +36°C° 0 mm 3 m/S 725 mmHg 46%
14:00 +36°C° 0 mm 4 m/S 724 mmHg 46%
15:00 +36°C° 0 mm 4 m/S 723 mmHg 46%
16:00 +34°C° 0.7 mm 3 m/S 723 mmHg 55%
17:00 +31°C° 0.7 mm 2 m/S 723 mmHg 64%
18:00 +28°C° 0.7 mm 1 m/S 723 mmHg 73%
19:00 +28°C° 0.3 mm 1 m/S 723 mmHg 77%
20:00 +27°C° 0.3 mm 1 m/S 724 mmHg 81%
21:00 +26°C° 0.3 mm 1 m/S 725 mmHg 85%
22:00 +26°C° 0.3 mm 1 m/S 725 mmHg 86%
23:00 +25°C° 0.3 mm 1 m/S 725 mmHg 87%

27 Oktober, Dienstag

Zeit Temperatur Niederschläge Wind Luftdruck Luftfeuchtigkeit
00:00 +25°C° 0.3 mm 1 m/S 725 mmHg 89%
01:00 +25°C° 0 mm 1 m/S 725 mmHg 90%
02:00 +23°C° 0 mm 0 m/S 724 mmHg 91%
03:00 +22°C° 0 mm 0 m/S 724 mmHg 92%
04:00 +22°C° 0.1 mm 0 m/S 724 mmHg 93%
05:00 +22°C° 0.1 mm 0 m/S 724 mmHg 94%
06:00 +22°C° 0.1 mm 0 m/S 724 mmHg 95%
07:00 +26°C° 0 mm 1 m/S 725 mmHg 86%
08:00 +28°C° 0 mm 1 m/S 725 mmHg 78%
09:00 +30°C° 0 mm 1 m/S 726 mmHg 70%
10:00 +32°C° 0 mm 1 m/S 726 mmHg 62%
11:00 +34°C° 0 mm 1 m/S 725 mmHg 54%
12:00 +37°C° 0 mm 2 m/S 725 mmHg 46%
13:00 +36°C° 0.2 mm 2 m/S 724 mmHg 48%
14:00 +35°C° 0.2 mm 2 m/S 723 mmHg 50%
15:00 +34°C° 0.2 mm 1 m/S 722 mmHg 52%
16:00 +33°C° 0.1 mm 1 m/S 722 mmHg 55%
17:00 +32°C° 0.1 mm 1 m/S 722 mmHg 58%
18:00 +32°C° 0.1 mm 1 m/S 722 mmHg 60%
19:00 +30°C° 0.7 mm 1 m/S 722 mmHg 67%
20:00 +29°C° 0.7 mm 1 m/S 723 mmHg 73%
21:00 +27°C° 0.7 mm 1 m/S 723 mmHg 79%
22:00 +27°C° 1.3 mm 1 m/S 723 mmHg 82%
23:00 +24°C° 1.3 mm 0 m/S 723 mmHg 85%
Mehr zeigen